HVDC transfer

From www.emi.ea.govt.nz provided by the Electricity Authority (New Zealand)
Run at: 20240505142649

Parameters
Date range,17 Jan 2021 - 17 Jan 2021
Time scale,Trading period
Show,Average flow (MW)

Period start,Period end,Trading period,Direction,Energy transfer (GWh),Peak flow (MW),Average flow (MW)
17/01/2021 00:00:00,17/01/2021 00:30:00,1,Southward at Benmore,-0.083,-167,-167
17/01/2021 00:30:00,17/01/2021 01:00:00,2,Southward at Benmore,-0.101,-203,-203
17/01/2021 01:00:00,17/01/2021 01:30:00,3,Southward at Benmore,-0.106,-213,-213
17/01/2021 01:30:00,17/01/2021 02:00:00,4,Southward at Benmore,-0.114,-228,-228
17/01/2021 02:00:00,17/01/2021 02:30:00,5,Southward at Benmore,-0.118,-237,-237
17/01/2021 02:30:00,17/01/2021 03:00:00,6,Southward at Benmore,-0.130,-261,-261
17/01/2021 03:00:00,17/01/2021 03:30:00,7,Southward at Benmore,-0.134,-269,-269
17/01/2021 03:30:00,17/01/2021 04:00:00,8,Southward at Benmore,-0.144,-289,-289
17/01/2021 04:00:00,17/01/2021 04:30:00,9,Southward at Benmore,-0.143,-287,-287
17/01/2021 04:30:00,17/01/2021 05:00:00,10,Southward at Benmore,-0.153,-306,-306
17/01/2021 05:00:00,17/01/2021 05:30:00,11,Southward at Benmore,-0.144,-288,-288
17/01/2021 05:30:00,17/01/2021 06:00:00,12,Southward at Benmore,-0.124,-249,-249
17/01/2021 06:00:00,17/01/2021 06:30:00,13,Southward at Benmore,-0.113,-226,-226
17/01/2021 06:30:00,17/01/2021 07:00:00,14,Southward at Benmore,-0.107,-214,-214
17/01/2021 07:00:00,17/01/2021 07:30:00,15,Southward at Benmore,-0.094,-188,-188
17/01/2021 07:30:00,17/01/2021 08:00:00,16,Southward at Benmore,-0.097,-195,-195
17/01/2021 08:00:00,17/01/2021 08:30:00,17,Southward at Benmore,-0.108,-217,-217
17/01/2021 08:30:00,17/01/2021 09:00:00,18,Southward at Benmore,-0.081,-162,-162
17/01/2021 09:00:00,17/01/2021 09:30:00,19,Southward at Benmore,-0.062,-125,-125
17/01/2021 09:30:00,17/01/2021 10:00:00,20,Southward at Benmore,-0.047,-94,-94
17/01/2021 10:00:00,17/01/2021 10:30:00,21,Southward at Benmore,-0.055,-111,-111
17/01/2021 10:30:00,17/01/2021 11:00:00,22,Southward at Benmore,-0.042,-85,-85
17/01/2021 11:00:00,17/01/2021 11:30:00,23,Southward at Benmore,-0.038,-76,-76
17/01/2021 11:30:00,17/01/2021 12:00:00,24,Southward at Benmore,-0.054,-109,-109
17/01/2021 12:00:00,17/01/2021 12:30:00,25,Southward at Benmore,-0.052,-104,-104
17/01/2021 12:30:00,17/01/2021 13:00:00,26,Southward at Benmore,-0.055,-110,-110
17/01/2021 13:00:00,17/01/2021 13:30:00,27,Southward at Benmore,-0.029,-59,-59
17/01/2021 13:30:00,17/01/2021 14:00:00,28,Northward at Haywards,0.003,6,6
17/01/2021 14:00:00,17/01/2021 14:30:00,29,Northward at Haywards,0.012,24,24
17/01/2021 14:30:00,17/01/2021 15:00:00,30,Southward at Benmore,-0.006,-13,-13
17/01/2021 15:00:00,17/01/2021 15:30:00,31,Northward at Haywards,0.006,12,12
17/01/2021 15:30:00,17/01/2021 16:00:00,32,Northward at Haywards,0.033,65,65
17/01/2021 16:00:00,17/01/2021 16:30:00,33,Northward at Haywards,0.014,27,27
17/01/2021 16:30:00,17/01/2021 17:00:00,34,Northward at Haywards,0.021,42,42
17/01/2021 17:00:00,17/01/2021 17:30:00,35,Northward at Haywards,0.011,21,21
17/01/2021 17:30:00,17/01/2021 18:00:00,36,Northward at Haywards,0.015,29,29
17/01/2021 18:00:00,17/01/2021 18:30:00,37,Northward at Haywards,0.001,1,1
17/01/2021 18:30:00,17/01/2021 19:00:00,38,Southward at Benmore,-0.004,-9,-9
17/01/2021 19:00:00,17/01/2021 19:30:00,39,Southward at Benmore,-0.014,-28,-28
17/01/2021 19:30:00,17/01/2021 20:00:00,40,Southward at Benmore,-0.037,-74,-74
17/01/2021 20:00:00,17/01/2021 20:30:00,41,Southward at Benmore,-0.066,-133,-133
17/01/2021 20:30:00,17/01/2021 21:00:00,42,Southward at Benmore,-0.086,-172,-172
17/01/2021 21:00:00,17/01/2021 21:30:00,43,Southward at Benmore,-0.064,-128,-128
17/01/2021 21:30:00,17/01/2021 22:00:00,44,Southward at Benmore,-0.107,-215,-215
17/01/2021 22:00:00,17/01/2021 22:30:00,45,Southward at Benmore,-0.121,-242,-242
17/01/2021 22:30:00,17/01/2021 23:00:00,46,Southward at Benmore,-0.139,-278,-278
17/01/2021 23:00:00,17/01/2021 23:30:00,47,Southward at Benmore,-0.137,-274,-274
17/01/2021 23:30:00,18/01/2021 00:00:00,48,Southward at Benmore,-0.136,-273,-273
